sat.trackr.live / text

‹ back to catalog

SEAHAWK-1

NORAD 43820 · 2018-099BQ

PAYLOAD ACTIVE UNKNOWN

§ Identity

Operator
Country
US
Launch date
2018-12-03
Launch site
AFWTR
Launch vehicle
Mass (kg)
RCS (m²)

External: N2YO · Heavens-Above · Gunter

§ Orbital elements

Epoch: 2026-09-13T02:01:59.573856Z

Period
94.48 min
Inclination
97.3865°
Eccentricity
0.0007999
Mean motion
15.24069101 rev/d
Perigee alt
488.1 km
Apogee alt
499.1 km
Semi-major
6,871.7 km
B*
2.7823e-4
RAAN
307.2673°
Arg perigee
12.5778°
Mean anomaly
347.5657°
Rev number
42,591

§ Raw data

SEAHAWK-11 43820U 18099BQ  26256.08471729  .00006688  00000+0  27823-3 0  99952 43820  97.3865 307.2673 0007999  12.5778 347.5657 15.24069101425916

JSON: /api/v1/satellites/43820 · /tle

For live sub-satellite position, see the globe view (requires WebGL).

§ Visibility from observer

Set your observer location to see the next 7 days of passes ≥ 10°. The values pass through the URL so the page stays shareable.

No JS? Fill the form by hand. The geolocation button needs JavaScript.

§ Radio — SatNOGS DB

ModeDescriptionDownlinkUplink
GMSK Mode U - GMSK 9K6 400.751 MHz

1 transmitter · refreshed weekly from db.satnogs.org